Weather History for KCNY - November, 2011

Change the Weather History Date:

Tuesday, November 15, 2011

  Actual Average Record
Temperature  
Mean Temperature 42 °F 39 °F  
Max Temperature 54 °F 51 °F 73 °F (1953)
Min Temperature 30 °F 27 °F 16 °F (2012)
Degree Days  
Heating Degree Days 23 26  
Month to date heating degree days 341  
Since 1 July heating degree days 760  
Cooling Degree Days 0 0  
Month to date cooling degree days 0  
Year to date cooling degree days 1289  
Moisture  
Dew Point 27 °F    
Average Humidity 59    
Maximum Humidity 89    
Minimum Humidity 35    
Precipitation  
Precipitation 0.00 in 0.02 in 0.47 in (1988)
Month to date precipitation 0.34  
Year to date precipitation 7.85  
Sea Level Pressure  
Sea Level Pressure 29.94 in    
Wind  
Wind Speed 4 mph (West)    
Max Wind Speed 14 mph    
Max Gust Speed -    
Visibility 10 miles    
Events      
T = Trace of Precipitation, MM = Missing Value Source: NWS Daily Summary

Daily Weather History Graph

Daily Weather History Graph

Search for Another Location

Airport or City:

Trip Planner

Search our weather history database for the weather conditions in past years. The results will help you decide how hot, cold, wet, or windy it might be!

Date:

Astronomy

Nov. 15, 2011 Rise Set
Actual Time 7:01 AM MST 5:05 PM MST
Civil Twilight 6:32 AM MST 5:34 PM MST
Nautical Twilight 6:00 AM MST 6:06 PM MST
Astronomical Twilight 5:29 AM MST 6:37 PM MST
Moon 9:18 PM MST (11/15) 11:02 AM MST (11/15)
Length of Visible Light 11h 01m
Length of Day
10h 04m
Waning Gibbous, 78% of the Moon is Illuminated
Nov 15
Waning Gibbous
Nov 18
Last Quarter
Nov 24
New
Dec 2
First Quarter
Dec 10
Full

Hourly Weather History & Observations

Time (MST) Temp. Windchill Dew Point Humidity Pressure Visibility Wind Dir Wind Speed Gust Speed Precip Events Conditions
12:53 AM 37.9 °F 34.4 °F 28.9 °F 70% 29.86 in 10.0 mi ENE 4.6 mph - N/A   Clear
1:53 AM 37.9 °F - 28.9 °F 70% 29.86 in 10.0 mi Calm Calm - N/A   Clear
2:53 AM 35.1 °F - 28.9 °F 78% 29.85 in 10.0 mi Calm Calm - N/A   Clear
3:53 AM 34.0 °F - 28.0 °F 79% 29.86 in 10.0 mi Calm Calm - N/A   Clear
4:53 AM 32.0 °F - 28.0 °F 85% 29.88 in 10.0 mi Calm Calm - N/A   Clear
5:53 AM 32.0 °F - 28.4 °F 87% 29.90 in 10.0 mi Calm Calm - N/A   Clear
6:53 AM 30.9 °F - 28.0 °F 89% 29.94 in 10.0 mi Calm Calm - N/A   Clear
7:53 AM 32.0 °F - 28.0 °F 85% 29.98 in 10.0 mi Calm Calm - N/A   Clear
8:53 AM 39.0 °F - 33.1 °F 79% 29.95 in 10.0 mi Calm Calm - N/A   Clear
9:53 AM 46.0 °F 43.9 °F 33.1 °F 61% 29.96 in 10.0 mi SE 4.6 mph - N/A   Clear
10:53 AM 50.0 °F - 30.9 °F 48% 29.94 in 10.0 mi SSE 6.9 mph - N/A   Overcast
11:53 AM 52.0 °F - 30.9 °F 45% 29.91 in 10.0 mi SSE 6.9 mph - N/A   Mostly Cloudy
12:53 PM 53.1 °F - 28.9 °F 40% 29.90 in 10.0 mi Calm Calm - N/A   Overcast
1:53 PM 54.0 °F - 27.0 °F 35% 29.89 in 10.0 mi NW 9.2 mph - N/A   Overcast
3:53 PM 52.0 °F - 28.0 °F 40% 29.91 in 10.0 mi NW 6.9 mph - N/A   Overcast
4:53 PM 48.9 °F - 27.0 °F 43% 29.93 in 10.0 mi West 6.9 mph - N/A   Overcast
5:53 PM 46.9 °F - 26.1 °F 44% 29.95 in 10.0 mi West 4.6 mph - N/A   Overcast
6:53 PM 41.0 °F 36.4 °F 27.0 °F 57% 30.00 in 10.0 mi NW 6.9 mph - N/A   Scattered Clouds
7:53 PM 39.0 °F 33.4 °F 21.0 °F 49% 30.02 in 10.0 mi WNW 8.1 mph - N/A   Clear
8:53 PM 39.9 °F 32.9 °F 19.9 °F 45% 30.02 in 10.0 mi West 11.5 mph - N/A   Clear
9:53 PM 37.9 °F 30.9 °F 19.9 °F 48% 30.02 in 10.0 mi West 10.4 mph - N/A   Clear
10:53 PM 39.9 °F 32.1 °F 19.0 °F 43% 30.02 in 10.0 mi West 13.8 mph - N/A   Clear
11:53 PM 37.9 °F 30.9 °F 19.9 °F 48% 30.03 in 10.0 mi West 10.4 mph - N/A   Clear